User: anonymous   Login
Location: Unspecified
(0.0000°N, 0.0000°E)
Time: 09:12:58
(UTC+00:00)
Language:

Isis 2 - Orbit

View from above orbital plane
View from above orbital plane
View from above satellite
View from above satellite

Ground track
Ground track

The orbit data is extracted from the following two-line orbital elements,

1  5104U 71024A   17086.70131937 +.00000034 +00000-0 +11776-3 0  9999
2  5104 088.1663 134.0657 0043326 197.3855 281.8938 12.67834266128180
Epoch (UTC): 27 March 2017 16:49:53
Eccentricity: 0.0043326
inclination: 88.1663°
perigee height: 1357 km
apogee height: 1424 km
right ascension of ascending node: 134.0657°
argument of perigee: 197.3855°
revolutions per day: 12.67834266
mean anomaly at epoch: 281.8938°
orbit number at epoch: 12818

The dashed part of the orbit path shows where the satellite is in the earth's shadow,  

DLR